Location: Ferintosh
(52.7647°N, 112.9692°W)
Time: 22:44:47
(UTC+00:00)

Vanguard 1 Rocket - Pass Details

Date: 22 May 2024
Orbit: 649 x 4221 km, 34.3° (Epoch: 13 June)

Event Time Altitude Azimuth Distance (km) Brightness Sun altitude
Rises 21:09:38 0° 263° (W) 6,229 12.1 52.4°
Reaches altitude 10° 21:16:00 10° 248° (WSW) 4,448 11.7 51.8°
Maximum altitude 21:22:32 18° 212° (SSW) 3,043 11.1 51.1°
Drops below altitude 10° 21:27:14 10° 172° (S) 3,013 10.5 50.6°
Sets 21:30:24 0° 152° (SSE) 3,598 10.6 50.2°
